EW7966 Weather Reports


time (UTC)temp
F
wind
direction
speed
knots
gust
knots
rain 1hr
in
rain 24hr
in
rain mn
in
humidity
%
barometer
mb
20260510180504 55 315 2.6 9.6 0.00 0.07 0.02 49 1023.9
20260510180004 55 328 5.2 9.6 0.00 0.07 0.02 49 1016.0
20260510175005 56 298 3.5 7.8 0.00 0.07 0.02 49 1023.9
20260510174502 56 290 1.7 5.2 0.00 0.07 0.02 51 1016.0
20260510174004 55 176 2.6 5.2 0.00 0.07 0.02 53 1023.9
20260510173504 55 277 1.7 5.2 0.00 0.07 0.02 54 1024.0
20260510173005 55 249 2.6 7.0 0.00 0.07 0.02 54 1024.0
20260510173002 55 249 2.6 7.0 0.00 0.07 0.02 54 1016.0
20260510172503 55 223 0.9 7.0 0.00 0.07 0.02 53 1024.0
20260510171504 54 194 0.9 3.5 0.00 0.07 0.02 57 1023.9
20260510171005 53 250 1.7 7.0 0.00 0.07 0.02 58 1024.1
20260510170503 53 300 2.6 7.0 0.00 0.07 0.02 64 1024.1
20260510170006 53 302 2.6 6.1 0.00 0.07 0.02 64 1024.0
20260510170003 53 302 1.7 6.1 0.00 0.07 0.02 64 1015.9
20260510165505 54 259 1.7 6.1 0.00 0.07 0.02 63 1024.1
20260510165005 54 150 1.7 8.7 0.00 0.07 0.02 67 1024.0
20260510164502 53 142 2.6 8.7 0.00 0.07 0.02 66 1015.8
20260510164005 53 245 4.3 7.0 0.00 0.07 0.02 66 1023.9
20260510163505 53 133 1.7 7.8 0.00 0.07 0.02 66 1023.9
20260510163002 52 213 3.5 9.6 0.00 0.07 0.02 68 1015.8
20260510162006 52 159 1.7 7.0 0.00 0.07 0.02 71 1024.0
20260510161503 51 215 4.3 7.8 0.00 0.07 0.02 69 1024.0
20260510161005 51 184 4.3 7.0 0.00 0.07 0.02 70 1024.0
20260510160504 51 204 3.5 5.2 0.00 0.07 0.02 71 1023.9
20260510160007 50 105 1.7 5.2 0.00 0.07 0.02 72 1023.9
20260510160002 50 105 0.9 5.2 0.00 0.07 0.02 72 1015.7
20260510155504 50 227 1.7 7.8 0.00 0.07 0.02 76 1023.9
20260510155010 49 250 3.5 7.8 0.00 0.07 0.02 75 1023.9
20260510154505 49 191 3.5 6.1 0.00 0.07 0.02 77 1023.9
20260510154502 49 191 2.6 6.1 0.00 0.07 0.02 77 1015.7
20260510154005 49 232 3.5 7.0 0.00 0.07 0.02 81 1023.9
20260510153504 48 217 1.7 6.1 0.00 0.07 0.02 83 1024.0
20260510153004 48 180 2.6 6.1 0.00 0.07 0.02 82 1015.7
20260510152005 47 160 2.6 5.2 0.00 0.07 0.02 83 1024.1
20260510151505 47 115 1.7 3.5 0.00 0.07 0.02 84 1024.2
20260510151502 47 115 1.7 3.5 0.00 0.07 0.02 84 1015.8
20260510150504 46 165 2.6 5.2 0.00 0.07 0.02 84 1024.3
20260510150002 46 165 2.6 5.2 0.00 0.07 0.02 88 1015.8
20260510145505 45 69 1.7 2.6 0.00 0.07 0.02 92 1024.3
20260510145006 44 69 1.7 4.3 0.00 0.07 0.02 94 1024.3
20260510144504 44 69 2.6 4.3 0.00 0.07 0.02 95 1024.2
20260510144502 44 69 1.7 4.3 0.00 0.07 0.02 95 1015.7
20260510144005 43 80 2.6 4.3 0.00 0.07 0.02 94 1024.2
20260510143505 43 26 1.7 4.3 0.00 0.07 0.02 94 1024.2
20260510143005 42 26 2.6 4.3 0.00 0.07 0.02 95 1024.2
20260510143002 42 26 1.7 4.3 0.00 0.07 0.02 95 1015.7
20260510142504 42 26 1.7 2.6 0.00 0.07 0.02 95 1024.2
20260510142005 42 26 1.7 3.5 0.00 0.07 0.02 95 1024.2
20260510141504 42 26 1.7 4.3 0.00 0.07 0.02 94 1024.1
20260510141502 42 26 0.9 4.3 0.00 0.07 0.02 94 1015.6
20260510140504 42 26 2.6 4.3 0.00 0.07 0.02 95 1024.1
20260510140006 42 26 1.7 3.5 0.00 0.07 0.02 95 1024.1
20260510140002 42 26 0.9 3.5 0.00 0.07 0.02 95 1015.6
20260510135504 42 26 1.7 3.5 0.00 0.07 0.02 95 1024.2
20260510135005 42 26 2.6 3.5 0.00 0.07 0.02 95 1024.0
20260510134502 42 26 0.0 4.3 0.00 0.07 0.02 95 1015.4
20260510134004 42 26 2.6 4.3 0.00 0.07 0.02 95 1024.0
20260510133503 42 26 1.7 5.2 0.00 0.07 0.02 95 1023.9
20260510133005 42 26 2.6 7.0 0.00 0.07 0.02 95 1023.9
20260510133002 42 26 2.6 7.0 0.00 0.07 0.02 95 1015.3
20260510132504 42 23 3.5 7.0 0.00 0.07 0.02 95 1024.0
20260510131505 42 25 3.5 5.2 0.00 0.07 0.02 94 1023.9
20260510131502 42 25 3.5 5.2 0.00 0.07 0.02 94 1015.3
20260510131005 42 42 3.5 5.2 0.00 0.07 0.02 94 1023.9
20260510130504 42 15 2.6 5.2 0.00 0.07 0.02 94 1023.8
20260510130007 42 15 3.5 5.2 0.00 0.07 0.02 95 1015.0
20260510125504 42 16 3.5 6.1 0.00 0.07 0.02 95 1023.7
20260510125005 42 96 0.9 2.6 0.00 0.07 0.02 95 1023.5
20260510124504 42 96 1.7 2.6 0.00 0.07 0.02 94 1023.3
20260510123005 42 96 0.9 1.7 0.00 0.07 0.02 95 1023.1
20260510123002 42 96 0.0 1.7 0.00 0.07 0.02 95 1014.4
20260510122505 42 96 0.0 0.9 0.00 0.07 0.02 95 1023.1
20260510122007 42 96 0.0 0.9 0.00 0.07 0.02 95 1023.1
20260510121507 42 96 0.0 1.7 0.00 0.07 0.02 95 1023.1
20260510121505 42 96 0.0 1.7 0.00 0.07 0.02 95 1014.2
20260510121006 42 96 0.0 1.7 0.00 0.07 0.02 95 1023.0
20260510120008 42 96 0.0 1.7 0.00 0.07 0.02 95 1023.1
20260510120005 42 96 0.0 1.7 0.00 0.07 0.02 95 1014.1
20260510115506 42 96 0.0 1.7 0.00 0.07 0.02 95 1023.0
20260510115005 41 96 0.9 2.6 0.00 0.07 0.02 95 1023.0
20260510114505 41 96 0.9 2.6 0.00 0.07 0.02 95 1014.2
20260510114005 41 96 0.9 2.6 0.00 0.07 0.02 95 1023.1
20260510113505 41 96 0.9 2.6 0.00 0.07 0.02 95 1023.1
20260510113006 41 96 1.7 2.6 0.00 0.07 0.02 95 1023.0
20260510113002 41 96 0.9 2.6 0.00 0.07 0.02 95 1014.1
20260510112504 41 96 0.0 2.6 0.00 0.07 0.02 95 1023.0
20260510112006 41 96 1.7 2.6 0.00 0.07 0.02 95 1023.1
20260510111507 41 96 0.9 2.6 0.00 0.07 0.02 95 1023.0
20260510111504 41 96 0.0 2.6 0.00 0.07 0.02 95 1014.1
20260510111005 41 96 1.7 3.5 0.00 0.07 0.02 95 1023.1
20260510110505 41 96 2.6 3.5 0.00 0.07 0.02 95 1023.0
20260510110008 41 96 0.9 3.5 0.00 0.07 0.02 96 1014.2
20260510110006 41 96 1.7 3.5 0.00 0.07 0.02 96 1023.1
20260510105507 41 96 2.6 3.5 0.00 0.07 0.02 95 1023.1
20260510105007 41 96 2.6 3.5 0.00 0.07 0.02 95 1022.9
20260510104505 41 96 2.6 5.2 0.00 0.07 0.02 95 1022.8
20260510104503 41 96 1.7 5.2 0.00 0.07 0.02 95 1013.9
20260510104006 41 96 3.5 5.2 0.00 0.07 0.02 95 1022.8
20260510103505 41 96 2.6 5.2 0.00 0.07 0.02 95 1022.8
20260510103008 41 96 2.6 5.2 0.00 0.07 0.02 96 1022.7
20260510103005 41 96 1.7 5.2 0.00 0.07 0.02 96 1013.8
20260510102006 41 96 4.3 7.0 0.00 0.07 0.02 96 1022.6
20260510101504 41 96 3.5 7.0 0.00 0.07 0.02 96 1013.6
20260510100007 41 62 3.5 5.2 0.00 0.07 0.02 95 1022.6
20260510100004 41 62 3.5 5.2 0.00 0.07 0.02 95 1013.6
20260510095506 41 62 3.5 5.2 0.00 0.07 0.02 95 1022.6
20260510095007 41 62 3.5 5.2 0.00 0.07 0.02 95 1022.6
20260510094517 41 67 3.5 6.1 0.00 0.07 0.02 95 1013.2
20260510094506 41 67 3.5 6.1 0.00 0.07 0.02 95 1022.3
20260510094006 41 56 3.5 6.1 0.00 0.07 0.02 95 1022.3
20260510093506 41 54 4.3 7.0 0.00 0.07 0.02 95 1022.3
20260510093006 41 48 1.7 3.5 0.00 0.07 0.02 95 1022.2
20260510093004 41 48 1.7 3.5 0.00 0.07 0.02 95 1013.1
20260510092505 41 48 2.6 3.5 0.00 0.07 0.02 95 1022.3
20260510091506 42 34 1.7 5.2 0.00 0.07 0.02 95 1022.3
20260510091006 42 26 3.5 5.2 0.00 0.07 0.02 95 1022.2
20260510090505 42 40 2.6 4.3 0.00 0.07 0.02 95 1022.3
20260510090008 42 40 0.9 3.5 0.00 0.07 0.02 95 1022.3
20260510090006 42 40 0.0 3.5 0.00 0.07 0.02 95 1013.1
20260510085505 42 40 1.7 3.5 0.00 0.07 0.02 95 1022.4
20260510084505 42 40 0.9 4.3 0.00 0.07 0.02 95 1022.4
20260510083505 42 40 2.6 4.3 0.00 0.07 0.02 95 1022.2
20260510083004 42 40 2.6 5.2 0.00 0.07 0.02 95 1012.9
20260510082506 42 40 3.5 5.2 0.00 0.07 0.02 95 1022.2
20260510082006 42 40 2.6 3.5 0.00 0.07 0.02 95 1022.3
20260510081505 42 40 2.6 5.2 0.00 0.07 0.02 95 1022.2
20260510081503 42 40 1.7 5.2 0.00 0.07 0.02 95 1012.8
20260510081005 42 40 2.6 5.2 0.00 0.07 0.02 95 1022.1
20260510080506 42 26 1.7 5.2 0.00 0.07 0.02 95 1022.1
20260510080006 42 30 1.7 5.2 0.00 0.07 0.02 94 1012.7
20260510075507 42 5 0.9 4.3 0.01 0.07 0.02 94 1022.0
20260510075005 42 5 1.7 3.5 0.01 0.07 0.02 94 1022.0
20260510074506 42 5 0.9 5.2 0.01 0.07 0.02 94 1022.0
20260510074504 42 5 0.9 5.2 0.01 0.07 0.02 94 1012.5
20260510074005 42 32 1.7 5.2 0.01 0.07 0.02 94 1021.9
20260510073505 42 9 1.7 7.8 0.01 0.07 0.02 94 1022.0
20260510073006 42 16 3.5 7.8 0.02 0.07 0.02 94 1021.9
20260510073004 42 16 2.6 7.8 0.02 0.07 0.02 94 1012.4
20260510072505 42 19 3.5 7.0 0.02 0.07 0.02 94 1022.1
20260510072006 42 16 0.9 3.5 0.02 0.07 0.02 94 1022.2
20260510071506 42 325 0.9 3.5 0.02 0.07 0.02 94 1022.3
20260510071503 42 325 0.9 3.5 0.02 0.07 0.02 94 1012.7
20260510071006 42 325 0.9 4.3 0.02 0.07 0.02 94 1022.2
20260510070505 42 19 2.6 7.8 0.02 0.07 0.02 93 1022.3
20260510070007 42 314 2.6 7.8 0.02 0.07 0.02 93 1022.3
20260510065505 42 13 2.6 7.8 0.01 0.06 0.01 93 1022.0
20260510065007 42 340 1.7 7.0 0.01 0.06 0.01 93 1022.2
20260510064505 42 360 1.7 7.0 0.01 0.06 0.01 92 1012.6
20260510064006 42 360 2.6 7.0 0.01 0.06 0.01 92 1022.2
20260510063505 42 315 2.6 7.8 0.01 0.06 0.01 92 1022.4
20260510063004 42 355 3.5 7.8 0.00 0.05 0.00 92 1012.9
20260510062506 42 311 3.5 7.8 0.00 0.05 0.00 91 1022.6
20260510062007 42 344 2.6 7.8 0.00 0.05 0.00 91 1022.5
20260510061506 43 339 2.6 7.8 0.00 0.05 0.00 91 1022.3
20260510061504 43 339 2.6 7.8 0.00 0.05 0.00 91 1012.5
20260510061006 43 329 2.6 7.8 0.00 0.05 0.00 91 1022.2
20260510060502 43 334 3.5 8.7 0.00 0.05 0.00 91 1022.3
20260510060008 43 317 3.5 8.7 0.00 0.05 0.00 91 1022.1
20260510060003 43 317 3.5 8.7 0.00 0.05 0.00 91 1012.2
20260510055505 43 360 3.5 7.8 0.00 0.05 0.05 90 1022.0
20260510054506 43 312 6.1 10.4 0.00 0.05 0.05 89 1021.9
20260510054503 43 312 6.1 10.4 0.00 0.05 0.05 89 1012.0
20260510053505 44 324 3.5 11.3 0.00 0.05 0.05 90 1021.9
20260510053004 44 343 5.2 11.3 0.00 0.05 0.05 90 1012.0
20260510052505 44 331 4.3 12.2 0.00 0.05 0.05 91 1021.8
20260510052007 44 355 4.3 13.9 0.00 0.05 0.05 91 1021.6
20260510051505 44 355 4.3 13.9 0.00 0.05 0.05 91 1021.1
20260510051006 44 18 8.7 13.9 0.00 0.05 0.05 91 1020.9
20260510050505 44 26 9.6 13.0 0.00 0.05 0.05 90 1021.1
20260510050009 44 31 6.1 11.3 0.00 0.05 0.05 90 1021.3
20260510050006 44 31 5.2 11.3 0.00 0.05 0.05 90 1011.4
20260510045505 44 355 5.2 11.3 0.00 0.05 0.05 90 1021.5
20260510045005 44 355 6.1 13.9 0.00 0.05 0.05 90 1021.3
20260510044505 44 16 8.7 15.6 0.00 0.05 0.05 90 1021.0
20260510044503 44 16 8.7 15.6 0.00 0.05 0.05 90 1011.0
20260510044006 44 19 9.6 15.6 0.00 0.05 0.05 90 1021.3
20260510043005 44 25 6.1 13.9 0.00 0.05 0.05 90 1011.6
20260510042505 44 5 6.1 13.0 0.00 0.05 0.05 90 1021.9
20260510042006 44 11 6.1 10.4 0.00 0.05 0.05 90 1022.4
20260510041510 44 340 4.3 11.3 0.00 0.05 0.05 90 1012.5
20260510041005 44 355 4.3 9.6 0.00 0.05 0.05 90 1022.2
20260510040505 44 322 4.3 7.8 0.00 0.05 0.05 90 1022.0
20260510040007 44 342 3.5 8.7 0.00 0.05 0.05 89 1021.8
20260510040004 44 342 2.6 8.7 0.00 0.05 0.05 89 1011.9
20260510035506 45 339 3.5 15.6 0.00 0.05 0.05 89 1021.6
20260510035006 45 5 4.3 15.6 0.00 0.05 0.05 87 1021.4
20260510034505 45 339 3.5 8.7 0.00 0.05 0.05 88 1021.3
20260510034503 45 339 2.6 8.7 0.00 0.05 0.05 88 1011.3
20260510034006 45 355 4.3 8.7 0.00 0.05 0.05 87 1021.1
20260510033505 45 333 3.5 8.7 0.00 0.05 0.05 86 1020.9
20260510033004 45 15 3.5 8.7 0.00 0.05 0.05 86 1010.8
20260510032506 45 336 2.6 9.6 0.02 0.05 0.05 85 1020.7
20260510032008 45 355 2.6 16.5 0.04 0.05 0.05 84 1020.4
20260510031504 45 44 7.8 21.7 0.05 0.05 0.05 83 1010.2
20260510031005 45 355 9.6 21.7 0.05 0.05 0.05 82 1020.2
20260510030007 46 337 7.0 13.9 0.05 0.05 0.05 81 1019.8
20260510030004 46 337 6.1 13.9 0.05 0.05 0.05 81 1009.7
20260510025506 46 355 5.2 12.2 0.05 0.05 0.05 81 1019.3
20260510024505 47 346 4.3 12.2 0.05 0.05 0.05 81 1019.0
20260510024007 47 329 4.3 12.2 0.05 0.05 0.05 81 1018.8
20260510023506 47 341 4.3 20.9 0.05 0.05 0.05 80 1018.3
20260510023007 48 338 5.2 22.6 0.05 0.05 0.05 76 1018.1
20260510023003 48 338 4.3 22.6 0.05 0.05 0.05 76 1007.9
20260510022505 49 9 7.0 18.2 0.02 0.02 0.02 73 1017.5
20260510022005 52 336 10.4 18.2 0.00 0.00 0.00 67 1017.0
20260510021505 54 321 5.2 19.1 0.00 0.00 0.00 56 1016.9
20260510021503 54 321 5.2 19.1 0.00 0.00 0.00 56 1006.7
20260510020500 56 319 8.7 23.5 0.00 0.00 0.00 51 1015.9
20260510020007 57 61 0.9 1.7 0.00 0.00 0.00 50 1015.1
20260510020004 57 61 0.0 1.7 0.00 0.00 0.00 50 1004.8
20260510015505 58 98 0.0 1.7 0.00 0.00 0.00 49 1014.6
20260510015006 58 98 0.9 2.6 0.00 0.00 0.00 48 1014.5
20260510014505 59 98 1.7 3.5 0.00 0.00 0.00 47 1014.5
20260510014503 59 98 0.9 3.5 0.00 0.00 0.00 47 1004.2
20260510014005 59 98 2.6 3.5 0.00 0.00 0.00 46 1014.4
20260510013506 59 98 2.6 3.5 0.00 0.00 0.00 45 1014.4
20260510013010 60 98 2.6 3.5 0.00 0.00 0.00 44 1004.0
20260510012007 60 94 2.6 5.2 0.00 0.00 0.00 43 1014.2
20260510011511 61 80 1.7 7.0 0.00 0.00 0.00 42 1004.0
20260510011505 61 80 2.6 7.0 0.00 0.00 0.00 42 1014.2
20260510011006 61 83 2.6 7.0 0.00 0.00 0.00 41 1014.1
20260510010505 61 88 4.3 7.8 0.00 0.00 0.00 40 1014.0
20260510010010 62 83 5.2 9.6 0.00 0.00 0.00 39 1003.6
20260510010006 62 83 5.2 9.6 0.00 0.00 0.00 39 1013.8
20260510005459 62 103 6.1 9.6 0.00 0.00 0.00 38 1013.7
20260510005005 63 91 7.0 9.6 0.00 0.00 0.00 36 1013.6
20260510004505 63 72 3.5 7.0 0.00 0.00 0.00 35 1003.4
20260510004007 64 61 3.5 6.1 0.00 0.00 0.00 33 1013.4
20260510003505 64 56 3.5 6.1 0.00 0.00 0.00 33 1013.4
20260510003006 64 59 3.5 5.2 0.00 0.00 0.00 32 1013.3
20260510002505 64 57 3.5 5.2 0.00 0.00 0.00 32 1013.2
20260510002006 65 69 4.3 5.2 0.00 0.00 0.00 30 1013.2
20260510001506 65 15 2.6 3.5 0.00 0.00 0.00 30 1013.3
20260510001005 65 15 0.9 2.6 0.00 0.00 0.00 30 1013.3
20260510000505 65 15 0.9 3.5 0.00 0.00 0.00 27 1013.3
20260510000004 65 15 0.0 4.3 0.00 0.00 0.00 28 1003.3
20260509235504 65 114 1.7 3.5 0.00 0.00 0.00 29 1013.3
20260509234505 65 114 0.0 7.8 0.00 0.00 0.00 28 1013.3
20260509234503 65 114 0.0 7.8 0.00 0.00 0.00 28 1003.4
20260509233505 65 28 0.0 2.6 0.00 0.00 0.00 29 1013.3
20260509233006 65 28 0.9 4.3 0.00 0.00 0.00 29 1013.3
20260509233004 65 28 0.9 4.3 0.00 0.00 0.00 29 1003.4
20260509232504 65 28 1.7 9.6 0.00 0.00 0.00 29 1013.2
20260509232006 65 342 5.2 10.4 0.00 0.00 0.00 29 1013.1
20260509231505 65 320 5.2 11.3 0.00 0.00 0.00 23 1013.3
20260509231007 65 314 7.8 11.3 0.00 0.00 0.00 23 1013.5
20260509230506 66 316 5.2 9.6 0.00 0.00 0.00 22 1013.3
20260509230005 66 315 4.3 7.0 0.00 0.00 0.00 25 1003.8
20260509225505 66 317 2.6 5.2 0.00 0.00 0.00 24 1013.4
20260509225007 66 15 1.7 7.8 0.00 0.00 0.00 25 1013.2
20260509224505 67 15 2.6 10.4 0.00 0.00 0.00 27 1013.1
20260509224503 67 15 1.7 10.4 0.00 0.00 0.00 27 1003.4
20260509224006 67 24 7.8 10.4 0.00 0.00 0.00 26 1013.1
20260509223504 67 355 4.3 10.4 0.00 0.00 0.00 27 1012.9
20260509223006 66 26 4.3 9.6 0.00 0.00 0.00 27 1012.9
20260509223003 66 26 4.3 9.6 0.00 0.00 0.00 27 1003.1
20260509222505 66 30 7.0 9.6 0.00 0.00 0.00 26 1013.0
20260509222005 66 355 4.3 8.7 0.00 0.00 0.00 27 1012.9
20260509221506 66 35 3.5 6.1 0.00 0.00 0.00 26 1013.0
20260509221504 66 35 2.6 6.1 0.00 0.00 0.00 26 1003.2
20260509221005 66 55 4.3 11.3 0.00 0.00 0.00 27 1012.9
20260509220506 67 9 6.1 11.3 0.00 0.00 0.00 25 1013.0
20260509220004 67 40 7.0 12.2 0.00 0.00 0.00 26 1003.0
20260509215505 68 44 8.7 12.2 0.00 0.00 0.00 25 1012.8
20260509215006 67 5 2.6 10.4 0.00 0.00 0.00 28 1013.1
20260509214505 67 288 6.1 12.2 0.00 0.00 0.00 24 1013.1
20260509214005 66 262 7.0 13.9 0.00 0.00 0.00 27 1013.2
20260509213506 66 308 8.7 20.0 0.00 0.00 0.00 24 1013.2
20260509213007 66 275 9.6 20.0 0.00 0.00 0.00 24 1013.2
20260509213003 66 275 9.6 20.0 0.00 0.00 0.00 24 1003.5
20260509212505 66 26 4.3 14.8 0.00 0.00 0.00 23 1013.3
20260509212006 67 27 8.7 12.2 0.00 0.00 0.00 27 1013.5
20260509211505 67 355 3.5 11.3 0.00 0.00 0.00 29 1013.6
20260509211503 67 355 2.6 11.3 0.00 0.00 0.00 29 1003.8
20260509210505 69 13 5.2 11.3 0.00 0.00 0.00 28 1013.5
20260509210009 68 311 4.3 9.6 0.00 0.00 0.00 28 1013.3
20260509210004 68 311 3.5 9.6 0.00 0.00 0.00 28 1003.6
20260509205505 68 47 3.5 9.6 0.00 0.00 0.00 25 1013.4
20260509205006 69 19 4.3 9.6 0.00 0.00 0.00 26 1013.4
20260509204506 69 351 3.5 8.7 0.00 0.00 0.00 26 1013.3
20260509204503 69 351 2.6 8.7 0.00 0.00 0.00 26 1003.6
20260509204007 69 360 4.3 13.9 0.00 0.00 0.00 29 1013.3
20260509203505 69 237 6.1 13.9 0.00 0.00 0.00 26 1013.5
20260509203006 69 22 7.0 11.3 0.00 0.00 0.00 28 1013.5
20260509203003 69 22 7.0 11.3 0.00 0.00 0.00 28 1003.9
20260509202505 68 11 6.1 16.5 0.00 0.00 0.00 27 1013.5
20260509202007 68 43 11.3 16.5 0.00 0.00 0.00 28 1013.6
20260509201507 68 27 7.0 15.6 0.00 0.00 0.00 28 1013.6
20260509201503 68 27 7.0 15.6 0.00 0.00 0.00 28 1004.0
20260509201008 69 309 4.3 16.5 0.00 0.00 0.00 26 1013.6
20260509200505 68 5 9.6 16.5 0.00 0.00 0.00 29 1013.7
20260509200007 69 21 7.0 16.5 0.00 0.00 0.00 26 1013.7
20260509200004 69 21 7.0 16.5 0.00 0.00 0.00 26 1004.1
20260509195504 69 26 6.1 16.5 0.00 0.00 0.00 24 1013.8
20260509195006 69 350 6.1 14.8 0.00 0.00 0.00 28 1013.8
20260509194505 69 346 4.3 14.8 0.00 0.00 0.00 25 1013.8
20260509194007 69 347 6.1 11.3 0.00 0.00 0.00 25 1013.7
20260509193505 69 28 4.3 9.6 0.00 0.00 0.00 25 1013.6
20260509193006 69 324 3.5 14.8 0.00 0.00 0.00 23 1013.8
20260509193003 69 324 3.5 14.8 0.00 0.00 0.00 23 1004.3
20260509192505 69 317 5.2 14.8 0.00 0.00 0.00 26 1013.7
20260509191505 68 351 6.1 14.8 0.00 0.00 0.00 29 1013.8
20260509191006 68 23 7.0 11.3 0.00 0.00 0.00 26 1013.9
20260509190504 67 32 3.5 11.3 0.00 0.00 0.00 30 1013.9
20260509190009 67 34 7.8 13.0 0.00 0.00 0.00 26 1013.9
20260509190006 67 34 7.0 13.0 0.00 0.00 0.00 26 1004.7
20260509185504 67 25 6.1 11.3 0.00 0.00 0.00 29 1013.9
20260509185005 68 31 4.3 11.3 0.00 0.00 0.00 28 1013.9
20260509184503 68 351 5.2 10.4 0.00 0.00 0.00 29 1004.8
20260509184006 68 334 4.3 13.9 0.00 0.00 0.00 32 1014.0
20260509183505 68 19 6.1 14.8 0.00 0.00 0.00 30 1013.9
20260509183011 68 349 7.8 14.8 0.00 0.00 0.00 20 1004.8
20260509183006 68 349 7.8 14.8 0.00 0.00 0.00 20 1013.9
20260509182505 68 347 6.1 11.3 0.00 0.00 0.00 22 1014.0
20260509182005 68 300 5.2 10.4 0.00 0.00 0.00 23 1014.1
20260509181504 67 28 2.6 13.9 0.00 0.00 0.00 22 1014.0
20260509181006 67 286 8.7 13.9 0.00 0.00 0.00 21 1014.2